Terminal Aerodrome Forecast
Issued by NWS

Home | Current Version | Previous Version | Text Only | Print | Product List | Glossary On
Versions: 1 2 3 4 5 6 7 8 9 10 11 12 13 14 15 16 17 18 19 20
000
FTUS46 KSEW 241100
TAFHQM
TAF
KHQM 241126Z 2412/2512 06004KT 5SM BR SCT120
     FM241500 08008KT P6SM SCT030 OVC050
     FM242000 08008KT P6SM -RA OVC035
     FM242200 13014KT 3SM -RA BR SCT008 OVC015
     FM250100 18020G30KT 2SM RA SCT006 OVC012
     FM250600 20012G25KT 5SM -RA BKN015 BKN025=

USA.gov is the U.S. government's official web portal to all federal, state and local government web resources and services.